Tiempo cada hora Abaclia

Hoy, 23 Junio, Miércoles

Tiempo Temperatura Precipitaciones Viento Presión Humedad
00:00 +24°C° 0 mm 2 mps 753 mmHg 81%
01:00 +23°C° 0 mm 1 mps 753 mmHg 83%
02:00 +23°C° 0 mm 1 mps 753 mmHg 86%
03:00 +23°C° 0 mm 1 mps 753 mmHg 87%
04:00 +21°C° 0 mm 2 mps 753 mmHg 87%
05:00 +21°C° 0 mm 2 mps 753 mmHg 87%
06:00 +24°C° 0 mm 2 mps 753 mmHg 81%
07:00 +25°C° 0 mm 3 mps 754 mmHg 74%
08:00 +27°C° 0 mm 3 mps 754 mmHg 67%
09:00 +28°C° 0 mm 3 mps 754 mmHg 64%
10:00 +29°C° 0 mm 3 mps 754 mmHg 60%
11:00 +30°C° 0 mm 3 mps 754 mmHg 57%
12:00 +31°C° 0 mm 2 mps 754 mmHg 54%
13:00 +32°C° 0 mm 2 mps 754 mmHg 51%
14:00 +32°C° 0 mm 2 mps 754 mmHg 49%
15:00 +33°C° 0 mm 3 mps 754 mmHg 50%
16:00 +33°C° 0 mm 3 mps 754 mmHg 51%
17:00 +33°C° 0 mm 3 mps 754 mmHg 52%
18:00 +30°C° 0.1 mm 2 mps 755 mmHg 57%
19:00 +29°C° 0.1 mm 2 mps 755 mmHg 63%
20:00 +27°C° 0.1 mm 1 mps 755 mmHg 68%
21:00 +26°C° 0.5 mm 1 mps 755 mmHg 73%
22:00 +25°C° 0.5 mm 1 mps 755 mmHg 78%
23:00 +24°C° 0.5 mm 1 mps 755 mmHg 83%

Mañana, 24 Junio, Jueves

Tiempo Temperatura Precipitaciones Viento Presión Humedad
00:00 +24°C° 0.1 mm 1 mps 755 mmHg 83%
01:00 +24°C° 0.1 mm 1 mps 755 mmHg 84%
02:00 +24°C° 0.1 mm 1 mps 755 mmHg 84%
03:00 +23°C° 0 mm 2 mps 755 mmHg 85%
04:00 +23°C° 0 mm 2 mps 755 mmHg 85%
05:00 +23°C° 0 mm 2 mps 755 mmHg 86%
06:00 +25°C° 0 mm 2 mps 756 mmHg 80%
07:00 +26°C° 0 mm 3 mps 756 mmHg 74%
08:00 +28°C° 0 mm 3 mps 756 mmHg 68%
09:00 +29°C° 0 mm 3 mps 756 mmHg 64%
10:00 +31°C° 0 mm 3 mps 756 mmHg 59%
11:00 +33°C° 0 mm 3 mps 756 mmHg 54%
12:00 +34°C° 0 mm 3 mps 756 mmHg 51%
13:00 +34°C° 0 mm 3 mps 756 mmHg 48%
14:00 +35°C° 0 mm 3 mps 756 mmHg 45%
15:00 +35°C° 0 mm 3 mps 756 mmHg 45%
16:00 +35°C° 0 mm 3 mps 755 mmHg 46%
17:00 +35°C° 0 mm 4 mps 755 mmHg 46%
18:00 +33°C° 0 mm 3 mps 755 mmHg 53%
19:00 +30°C° 0 mm 3 mps 755 mmHg 60%
20:00 +29°C° 0 mm 3 mps 755 mmHg 67%
21:00 +28°C° 0.1 mm 3 mps 755 mmHg 69%
22:00 +27°C° 0.1 mm 3 mps 755 mmHg 71%
23:00 +27°C° 0.1 mm 3 mps 755 mmHg 73%

Pasado mañana, 25 Junio, Viernes

Tiempo Temperatura Precipitaciones Viento Presión Humedad
00:00 +26°C° 0 mm 3 mps 755 mmHg 76%
01:00 +26°C° 0 mm 3 mps 755 mmHg 78%
02:00 +25°C° 0 mm 3 mps 755 mmHg 80%
03:00 +25°C° 0 mm 2 mps 755 mmHg 82%
04:00 +25°C° 0 mm 2 mps 755 mmHg 84%
05:00 +24°C° 0 mm 2 mps 755 mmHg 86%
06:00 +26°C° 0.4 mm 3 mps 755 mmHg 78%
07:00 +27°C° 0.4 mm 3 mps 755 mmHg 71%
08:00 +28°C° 0.4 mm 3 mps 755 mmHg 64%
09:00 +30°C° 0 mm 3 mps 755 mmHg 59%
10:00 +31°C° 0 mm 3 mps 755 mmHg 53%
11:00 +33°C° 0 mm 3 mps 755 mmHg 48%
12:00 +34°C° 0 mm 3 mps 755 mmHg 46%
13:00 +34°C° 0 mm 4 mps 754 mmHg 44%
14:00 +35°C° 0 mm 4 mps 754 mmHg 43%
15:00 +34°C° 0 mm 5 mps 754 mmHg 46%
16:00 +34°C° 0 mm 5 mps 754 mmHg 48%
17:00 +33°C° 0 mm 5 mps 753 mmHg 51%
18:00 +30°C° 0.2 mm 4 mps 753 mmHg 58%
19:00 +29°C° 0.2 mm 3 mps 753 mmHg 64%
20:00 +27°C° 0.2 mm 2 mps 753 mmHg 70%
21:00 +27°C° 0.2 mm 2 mps 753 mmHg 73%
22:00 +26°C° 0.2 mm 2 mps 753 mmHg 76%
23:00 +25°C° 0.2 mm 2 mps 753 mmHg 78%

26 Junio, Sábado

Tiempo Temperatura Precipitaciones Viento Presión Humedad
00:00 +25°C° 0 mm 2 mps 753 mmHg 79%
01:00 +25°C° 0 mm 2 mps 753 mmHg 80%
02:00 +24°C° 0 mm 3 mps 753 mmHg 81%
03:00 +24°C° 0 mm 3 mps 753 mmHg 81%
04:00 +24°C° 0 mm 3 mps 753 mmHg 82%
05:00 +24°C° 0 mm 3 mps 753 mmHg 83%
06:00 +25°C° 0 mm 3 mps 753 mmHg 77%
07:00 +27°C° 0 mm 4 mps 753 mmHg 71%
08:00 +29°C° 0 mm 4 mps 754 mmHg 66%
09:00 +30°C° 0.2 mm 4 mps 754 mmHg 62%
10:00 +32°C° 0.2 mm 4 mps 754 mmHg 59%
11:00 +33°C° 0.2 mm 5 mps 754 mmHg 55%
12:00 +33°C° 0 mm 5 mps 753 mmHg 53%
13:00 +34°C° 0 mm 5 mps 753 mmHg 52%
14:00 +34°C° 0 mm 5 mps 753 mmHg 50%
15:00 +33°C° 0.1 mm 5 mps 753 mmHg 54%
16:00 +32°C° 0.1 mm 6 mps 753 mmHg 58%
17:00 +32°C° 0.1 mm 6 mps 753 mmHg 62%
18:00 +29°C° 0.3 mm 6 mps 753 mmHg 69%
19:00 +27°C° 0.3 mm 6 mps 753 mmHg 76%
20:00 +26°C° 0.3 mm 6 mps 753 mmHg 82%
21:00 +24°C° 0.3 mm 6 mps 753 mmHg 84%
22:00 +23°C° 0.3 mm 6 mps 754 mmHg 86%
23:00 +22°C° 0.3 mm 7 mps 754 mmHg 87%

27 Junio, Domingo

Tiempo Temperatura Precipitaciones Viento Presión Humedad
00:00 +21°C° 0 mm 6 mps 754 mmHg 89%
01:00 +21°C° 0 mm 6 mps 754 mmHg 90%
02:00 +20°C° 0 mm 5 mps 754 mmHg 91%
03:00 +20°C° 0 mm 5 mps 754 mmHg 92%
04:00 +20°C° 0 mm 5 mps 754 mmHg 92%
05:00 +20°C° 0 mm 4 mps 754 mmHg 93%
06:00 +21°C° 0 mm 5 mps 754 mmHg 87%
07:00 +22°C° 0 mm 5 mps 754 mmHg 82%
08:00 +24°C° 0 mm 6 mps 755 mmHg 76%
09:00 +26°C° 0 mm 6 mps 755 mmHg 72%
10:00 +27°C° 0 mm 6 mps 755 mmHg 68%
11:00 +28°C° 0 mm 6 mps 755 mmHg 64%
12:00 +28°C° 0 mm 6 mps 755 mmHg 62%
13:00 +29°C° 0 mm 5 mps 755 mmHg 60%
14:00 +29°C° 0 mm 5 mps 755 mmHg 59%
15:00 +29°C° 0 mm 5 mps 755 mmHg 61%
16:00 +28°C° 0 mm 5 mps 755 mmHg 64%
17:00 +27°C° 0 mm 5 mps 755 mmHg 66%
18:00 +27°C° 0 mm 5 mps 755 mmHg 69%
19:00 +26°C° 0 mm 4 mps 755 mmHg 72%
20:00 +25°C° 0 mm 3 mps 755 mmHg 75%
21:00 +24°C° 0 mm 3 mps 756 mmHg 77%
22:00 +24°C° 0 mm 3 mps 756 mmHg 79%
23:00 +22°C° 0 mm 3 mps 756 mmHg 81%

28 Junio, Lunes

Tiempo Temperatura Precipitaciones Viento Presión Humedad
00:00 +22°C° 0 mm 3 mps 756 mmHg 80%
01:00 +21°C° 0 mm 3 mps 756 mmHg 79%
02:00 +21°C° 0 mm 3 mps 756 mmHg 78%
03:00 +21°C° 0 mm 2 mps 756 mmHg 78%
04:00 +21°C° 0 mm 2 mps 756 mmHg 78%
05:00 +21°C° 0 mm 2 mps 757 mmHg 78%
06:00 +22°C° 0 mm 3 mps 757 mmHg 72%
07:00 +23°C° 0 mm 4 mps 757 mmHg 67%
08:00 +26°C° 0 mm 4 mps 757 mmHg 62%
09:00 +27°C° 0 mm 4 mps 757 mmHg 58%
10:00 +28°C° 0 mm 4 mps 757 mmHg 54%
11:00 +29°C° 0 mm 4 mps 757 mmHg 50%
12:00 +30°C° 0 mm 4 mps 757 mmHg 48%
13:00 +30°C° 0 mm 4 mps 757 mmHg 46%
14:00 +32°C° 0 mm 4 mps 757 mmHg 45%
15:00 +32°C° 0 mm 4 mps 757 mmHg 45%
16:00 +30°C° 0 mm 4 mps 757 mmHg 45%
17:00 +30°C° 0 mm 4 mps 757 mmHg 45%
18:00 +29°C° 0 mm 3 mps 757 mmHg 51%
19:00 +27°C° 0 mm 3 mps 757 mmHg 57%
20:00 +25°C° 0 mm 2 mps 757 mmHg 64%
21:00 +25°C° 0 mm 2 mps 757 mmHg 64%
22:00 +24°C° 0 mm 2 mps 757 mmHg 65%
23:00 +23°C° 0 mm 2 mps 757 mmHg 65%
Mostrar más

Necesitamos Su Consentimiento

Meteoprog y nuestros Proveedores de Servicios pueden almacenar y acceder a sus datos personales como cookies, identificadores de dispositivo u otras tecnologías similares de su dispositivo y procesar dichos datos para personalizar contenido y anuncios, además de ofrecer funciones de redes sociales y analizar el tráfico.

  • Almacenar y/o acceder a información en su dispositivo

    Se puede almacenar o acceder a cookies, identificadores de dispositivo u otra información de su dispositivo para los fines anteriormente indicados.

  • Anuncios y contenido personalizados, medición de anuncios y contenido, percepciones del público, y desarrollo de productos

    Los anuncios y el contenido pueden personalizarse en base a su perfil. Se pueden añadir más datos para personalizar mejor los anuncios y contenidos. Se puede medir el rendimiento de los anuncios y contenidos. Se puede obtener la percepción sobre el público que ha visto los anuncios y contenidos. Dichos datos pueden usarse para desarrollar o mejorar la experiencia del usuario, sistemas y software.

Al hacer clic en ‘Estoy De Acuerdo’ usted permitirá el uso de las cookies, identificadores de dispositivo, balizas web u otras tecnologías similares indicadas. Su configuración puede cambiarse desde el navegador de su dispositivo.

Para ciertos fines, los intereses legítimos pueden ser considerados por encima del consentimiento. Puede leer más sobre ello en nuestra Política de Privacidad y Cookies.